DW1779 Weather Reports


time (UTC)temp
F
wind
direction
speed
knots
gust
knots
rain 1hr
in
rain 24hr
in
rain mn
in
humidity
%
barometer
mb
20260831124558 68 146 1.7 6.1 0.00 0.00 0.00 85 1019.3
20260831124050 67 157 0.9 4.3 0.00 0.00 0.00 86 1019.2
20260831123550 67 170 0.9 2.6 0.00 0.00 0.00 87 1019.1
20260831123051 66 142 0.9 2.6 0.00 0.00 0.00 87 1019.1
20260831122548 66 173 1.7 3.5 0.00 0.00 0.00 88 1019.0
20260831122047 66 161 0.0 2.6 0.00 0.00 0.00 88 1019.0
20260831121551 65 165 0.9 4.3 0.00 0.00 0.00 89 1019.0
20260831121045 65 167 0.9 4.3 0.00 0.00 0.00 89 1018.9
20260831120643 65 128 0.0 4.3 0.00 0.00 0.00 89 1018.8
20260831120001 65 165 0.9 4.3 0.00 0.00 0.00 89 1017.9
20260831115600 65 132 0.0 0.9 0.00 0.00 0.00 89 1017.8
20260831115059 65 163 0.0 0.9 0.00 0.00 0.00 89 1017.8
20260831114600 65 168 0.0 0.9 0.00 0.00 0.00 88 1017.7
20260831114058 65 113 0.0 0.9 0.00 0.00 0.00 88 1017.7
20260831113558 65 114 0.0 0.9 0.00 0.00 0.00 88 1017.7
20260831113058 65 126 0.0 0.9 0.00 0.00 0.00 88 1017.6
20260831112556 65 126 0.0 1.7 0.00 0.00 0.00 88 1017.5
20260831112055 65 126 0.0 1.7 0.00 0.00 0.00 88 1017.5
20260831111555 65 111 0.0 1.7 0.00 0.00 0.00 87 1017.6
20260831111054 66 117 0.0 0.9 0.00 0.00 0.00 87 1017.5
20260831110655 66 123 0.0 1.7 0.00 0.00 0.00 86 1017.6
20260831110052 66 136 0.0 1.7 0.00 0.00 0.00 86 1017.6
20260831105552 66 143 0.0 1.7 0.00 0.00 0.00 86 1017.5
20260831105052 66 126 0.9 2.6 0.00 0.00 0.00 87 1017.6
20260831104553 66 138 0.9 2.6 0.00 0.00 0.00 87 1017.5
20260831104050 66 125 0.0 0.9 0.00 0.00 0.00 87 1017.5
20260831103553 66 159 0.0 0.9 0.00 0.00 0.00 86 1017.5
20260831103053 66 150 0.0 0.9 0.00 0.00 0.00 86 1017.4
20260831102554 66 163 0.0 0.9 0.00 0.00 0.00 86 1017.4
20260831102049 66 163 0.0 0.9 0.00 0.00 0.00 85 1017.4
20260831101558 67 164 0.0 0.9 0.00 0.00 0.00 84 1017.4
20260831101048 67 132 0.0 2.6 0.00 0.00 0.00 85 1017.4
20260831100646 67 131 0.0 2.6 0.00 0.00 0.00 84 1017.3
20260831095546 67 113 0.0 1.7 0.00 0.00 0.00 83 1017.4
20260831095046 67 160 0.0 1.7 0.00 0.00 0.00 83 1017.4
20260831094545 67 130 0.0 2.6 0.00 0.00 0.00 83 1017.4
20260831094046 68 130 0.9 4.3 0.00 0.00 0.00 82 1017.4
20260831093545 68 136 0.0 2.6 0.00 0.00 0.00 82 1017.4
20260831093049 68 160 0.0 2.6 0.00 0.00 0.00 81 1017.5
20260831092549 68 147 0.0 1.7 0.00 0.00 0.00 81 1017.4
20260831092044 68 127 0.0 2.6 0.00 0.00 0.00 81 1017.4
20260831091546 69 194 0.0 2.6 0.00 0.00 0.00 81 1017.3
20260831091044 69 150 0.0 2.6 0.00 0.00 0.00 79 1017.3
20260831090644 69 184 0.0 2.6 0.00 0.00 0.00 80 1017.2
20260831090048 69 90 0.0 1.7 0.00 0.00 0.00 79 1017.3
20260831085545 69 200 0.0 2.6 0.00 0.00 0.00 80 1017.4
20260831085045 70 202 0.0 2.6 0.00 0.00 0.00 77 1017.3
20260831084549 70 178 0.0 2.6 0.00 0.00 0.00 77 1017.2
20260831084044 70 193 0.0 1.7 0.00 0.00 0.00 78 1017.1
20260831083544 70 188 0.0 4.3 0.00 0.00 0.00 78 1017.1
20260831083045 69 227 0.9 6.1 0.00 0.00 0.00 78 1017.1
20260831082543 68 207 2.6 6.1 0.00 0.00 0.00 80 1017.0
20260831082043 68 162 0.9 2.6 0.00 0.00 0.00 80 1016.9
20260831081543 68 166 0.9 3.5 0.00 0.00 0.00 81 1016.8
20260831081042 68 142 0.9 5.2 0.00 0.00 0.00 82 1016.8
20260831080642 68 148 0.9 5.2 0.00 0.00 0.00 82 1016.7
20260831080043 67 152 0.0 2.6 0.00 0.00 0.00 81 1016.7
20260831075543 67 197 0.0 2.6 0.00 0.00 0.00 82 1016.8
20260831075047 67 195 0.9 2.6 0.00 0.00 0.00 84 1016.8
20260831074542 67 187 0.9 2.6 0.00 0.00 0.00 84 1016.9
20260831074041 67 174 0.9 2.6 0.00 0.00 0.00 83 1016.9
20260831073541 67 172 0.0 3.5 0.00 0.00 0.00 82 1017.0
20260831073041 67 189 0.0 3.5 0.00 0.00 0.00 82 1017.0
20260831072542 67 158 0.9 4.3 0.00 0.00 0.00 82 1016.9
20260831072040 67 165 0.0 3.5 0.00 0.00 0.00 82 1017.0
20260831071557 68 116 0.0 4.3 0.00 0.00 0.00 82 1016.9
20260831071042 68 167 0.9 5.2 0.00 0.00 0.00 82 1017.0
20260831070502 68 151 0.9 4.3 0.00 0.00 0.00 82 1017.2
20260831070002 68 130 0.9 4.3 0.00 0.00 0.00 81 1017.2
20260831065503 68 145 0.9 4.3 0.00 0.00 0.00 81 1017.2
20260831065002 68 184 0.9 3.5 0.00 0.00 0.00 81 1017.2
20260831064501 69 154 0.9 3.5 0.00 0.00 0.00 81 1017.3
20260831064102 69 185 0.0 3.5 0.00 0.00 0.00 81 1017.3
20260831063600 69 219 0.0 5.2 0.00 0.00 0.00 81 1017.4
20260831063110 69 134 0.9 5.2 0.00 0.00 0.00 81 1017.4
20260831062559 69 169 0.9 4.3 0.00 0.00 0.00 80 1017.4
20260831062059 69 189 1.7 4.3 0.00 0.00 0.00 80 1017.4
20260831061559 69 154 0.9 4.3 0.00 0.00 0.00 79 1017.4
20260831061101 69 136 0.9 4.3 0.00 0.00 0.00 80 1017.5
20260831060503 69 169 0.9 5.2 0.00 0.00 0.00 79 1017.4
20260831060002 70 138 1.7 3.5 0.00 0.00 0.00 78 1017.4
20260831055600 70 133 0.9 2.6 0.00 0.00 0.00 77 1017.5
20260831055103 70 116 0.9 2.6 0.00 0.00 0.00 77 1017.5
20260831054600 70 115 0.9 2.6 0.00 0.00 0.00 77 1017.5
20260831054103 70 144 0.9 3.5 0.00 0.00 0.00 77 1017.5
20260831053558 70 126 0.9 3.5 0.00 0.00 0.00 77 1017.4
20260831053059 70 156 0.9 5.2 0.00 0.00 0.00 77 1017.3
20260831052556 71 126 1.7 5.2 0.00 0.00 0.00 76 1017.4
20260831052056 70 163 0.9 4.3 0.00 0.00 0.00 77 1017.3
20260831051604 71 132 1.7 3.5 0.00 0.00 0.00 77 1017.2
20260831051055 71 138 1.7 4.3 0.00 0.00 0.00 77 1017.2
20260831050653 71 171 0.9 4.3 0.00 0.00 0.00 77 1017.1
20260831050050 71 198 1.7 6.1 0.00 0.00 0.00 76 1017.2
20260831045551 71 163 0.9 6.1 0.00 0.00 0.00 76 1017.1
20260831045050 72 144 0.9 5.2 0.00 0.00 0.00 75 1017.2
20260831044551 72 127 0.9 3.5 0.00 0.00 0.00 73 1017.1
20260831044051 73 156 0.0 3.5 0.00 0.00 0.00 71 1017.0
20260831043549 74 148 1.7 4.3 0.00 0.00 0.00 70 1017.0
20260831043049 74 174 0.9 3.5 0.00 0.00 0.00 70 1016.9
20260831042549 74 192 0.9 6.1 0.00 0.00 0.00 69 1016.9
20260831042050 74 168 1.7 6.1 0.00 0.00 0.00 69 1017.0
20260831041549 74 169 1.7 6.1 0.00 0.00 0.00 69 1016.9
20260831041048 74 175 1.7 5.2 0.00 0.00 0.00 69 1016.9
20260831040648 74 176 0.9 5.2 0.00 0.00 0.00 69 1016.8
20260831040047 75 171 1.7 5.2 0.00 0.00 0.00 69 1016.8
20260831035546 75 163 0.9 5.2 0.00 0.00 0.00 68 1016.9
20260831035047 75 180 0.9 3.5 0.00 0.00 0.00 68 1016.9
20260831034546 75 111 0.9 3.5 0.00 0.00 0.00 68 1017.0
20260831034046 75 165 0.9 5.2 0.00 0.00 0.00 67 1016.9
20260831033549 75 183 0.9 6.1 0.00 0.00 0.00 68 1017.0
20260831033051 76 144 1.7 7.8 0.00 0.00 0.00 69 1016.9
20260831032546 76 194 1.7 4.3 0.00 0.00 0.00 67 1016.9
20260831032046 76 171 1.7 4.3 0.00 0.00 0.00 67 1016.9
20260831031545 76 145 1.7 5.2 0.00 0.00 0.00 67 1017.0
20260831031045 76 144 1.7 4.3 0.00 0.00 0.00 68 1017.0
20260831030646 76 200 1.7 4.3 0.00 0.00 0.00 67 1017.0
20260831030042 76 169 0.9 5.2 0.00 0.00 0.00 69 1016.9
20260831025542 77 170 2.6 6.1 0.00 0.00 0.00 68 1016.9
20260831025043 77 178 0.9 4.3 0.00 0.00 0.00 68 1016.8
20260831024542 76 199 1.7 6.1 0.00 0.00 0.00 69 1016.8
20260831024043 76 136 0.9 5.2 0.00 0.00 0.00 71 1016.7
20260831023540 77 167 1.7 6.1 0.00 0.00 0.00 68 1016.7
20260831023042 77 176 0.9 6.1 0.00 0.00 0.00 71 1016.7
20260831022542 76 203 1.7 7.0 0.00 0.00 0.00 72 1016.7
20260831022041 75 169 1.7 5.2 0.00 0.00 0.00 74 1016.6
20260831021542 74 76 1.7 6.1 0.00 0.00 0.00 76 1016.5
20260831021041 74 186 0.9 4.3 0.00 0.00 0.00 76 1016.4
20260831020641 74 202 0.9 4.3 0.00 0.00 0.00 77 1016.4
20260831020111 74 166 0.0 3.5 0.00 0.00 0.00 78 1016.4
20260831015554 74 134 0.0 2.6 0.00 0.00 0.00 78 1016.3
20260831015054 74 137 0.0 3.5 0.00 0.00 0.00 78 1016.2
20260831014554 74 165 0.0 5.2 0.00 0.00 0.00 76 1016.2
20260831014054 75 149 1.7 6.1 0.00 0.00 0.00 75 1016.1
20260831013557 75 153 0.0 4.3 0.00 0.00 0.00 74 1016.1
20260831013054 75 156 0.9 4.3 0.00 0.00 0.00 73 1016.0
20260831012554 76 184 0.9 4.3 0.00 0.00 0.00 73 1015.9
20260831012054 76 144 0.0 3.5 0.00 0.00 0.00 73 1016.0
20260831011604 76 182 0.9 3.5 0.00 0.00 0.00 71 1015.9
20260831011052 77 163 0.0 3.5 0.00 0.00 0.00 70 1015.8
20260831010655 77 167 0.0 3.5 0.00 0.00 0.00 70 1015.8
20260831010053 78 168 0.0 3.5 0.00 0.00 0.00 70 1015.7
20260831005556 78 159 0.9 3.5 0.00 0.00 0.00 69 1015.8
20260831005052 79 159 0.9 2.6 0.00 0.00 0.00 65 1015.7
20260831004552 81 162 0.9 4.3 0.00 0.00 0.00 63 1015.7
20260831004051 81 182 0.9 4.3 0.00 0.00 0.00 61 1015.7
20260831003552 82 152 0.9 3.5 0.00 0.00 0.00 61 1015.5
20260831003052 83 157 0.9 6.1 0.00 0.00 0.00 58 1015.6
20260831002551 84 123 1.7 7.8 0.00 0.00 0.00 56 1015.6
20260831002052 84 161 1.7 7.8 0.00 0.00 0.00 57 1015.5
20260831001552 85 163 1.7 6.1 0.00 0.00 0.00 56 1015.5
20260831001052 85 169 0.9 7.0 0.00 0.00 0.00 55 1015.5
20260831000651 86 132 0.9 8.7 0.00 0.00 0.00 54 1015.5
20260831000047 87 175 2.6 8.7 0.00 0.00 0.00 49 1015.4
20260830235546 86 170 1.7 7.0 0.00 0.00 0.00 51 1015.5
20260830235048 87 128 1.7 7.0 0.00 0.00 0.00 52 1015.6
20260830234548 87 178 1.7 5.2 0.00 0.00 0.00 52 1015.5
20260830234049 87 152 2.6 6.1 0.00 0.00 0.00 50 1015.5
20260830233546 87 139 0.9 7.0 0.00 0.00 0.00 51 1015.5
20260830233046 88 110 0.0 7.8 0.00 0.00 0.00 52 1015.6
20260830232546 89 183 2.6 7.8 0.00 0.00 0.00 47 1015.6
20260830232046 89 110 1.7 5.2 0.00 0.00 0.00 51 1015.6
20260830231546 90 207 2.6 7.8 0.00 0.00 0.00 47 1015.5
20260830231044 90 178 1.7 7.8 0.00 0.00 0.00 46 1015.5
20260830230645 91 193 1.7 8.7 0.00 0.00 0.00 45 1015.4
20260830230045 91 149 3.5 7.8 0.00 0.00 0.00 46 1015.5
20260830225545 92 161 2.6 9.6 0.00 0.00 0.00 43 1015.5
20260830225044 91 119 5.2 9.6 0.00 0.00 0.00 43 1015.5
20260830224545 92 167 5.2 9.6 0.00 0.00 0.00 43 1015.5
20260830224045 92 168 3.5 10.4 0.00 0.00 0.00 43 1015.4
20260830223544 93 190 4.3 9.6 0.00 0.00 0.00 42 1015.5
20260830223044 93 140 3.5 12.2 0.00 0.00 0.00 43 1015.5
20260830222543 93 168 3.5 9.6 0.00 0.00 0.00 43 1015.5
20260830222045 93 167 3.5 8.7 0.00 0.00 0.00 44 1015.4
20260830221547 93 196 1.7 11.3 0.00 0.00 0.00 43 1015.5
20260830221043 93 154 5.2 11.3 0.00 0.00 0.00 42 1015.5
20260830220646 93 126 4.3 10.4 0.00 0.00 0.00 42 1015.5
20260830220047 94 182 4.3 13.0 0.00 0.00 0.00 42 1015.5
20260830215541 94 164 4.3 13.0 0.00 0.00 0.00 42 1015.5
20260830215041 94 106 3.5 9.6 0.00 0.00 0.00 43 1015.5
20260830214544 93 103 3.5 9.6 0.00 0.00 0.00 43 1015.6
20260830214040 93 163 3.5 7.8 0.00 0.00 0.00 45 1015.6
20260830213538 93 167 3.5 7.8 0.00 0.00 0.00 44 1015.8
20260830213049 93 88 3.5 8.7 0.00 0.00 0.00 45 1015.8
20260830212539 93 159 3.5 9.6 0.00 0.00 0.00 48 1015.8
20260830212039 94 143 1.7 7.8 0.00 0.00 0.00 46 1015.9
20260830211552 94 183 1.7 9.6 0.00 0.00 0.00 45 1015.9
20260830211037 95 163 3.5 7.0 0.00 0.00 0.00 41 1015.9
20260830210639 95 126 1.7 6.1 0.00 0.00 0.00 41 1015.8
20260830205557 95 153 2.6 7.8 0.00 0.00 0.00 42 1015.8
20260830205101 95 159 3.5 12.2 0.00 0.00 0.00 42 1015.9
20260830204602 94 200 2.6 12.2 0.00 0.00 0.00 44 1015.8
20260830204101 95 153 1.7 9.6 0.00 0.00 0.00 46 1015.8
20260830203557 95 168 2.6 9.6 0.00 0.00 0.00 42 1015.9
20260830203102 95 115 3.5 9.6 0.00 0.00 0.00 41 1016.0
20260830202557 95 113 4.3 10.4 0.00 0.00 0.00 43 1015.9
20260830202103 95 208 5.2 11.3 0.00 0.00 0.00 41 1016.0
20260830201601 96 54 5.2 11.3 0.00 0.00 0.00 44 1016.0
20260830201055 96 151 2.6 7.0 0.00 0.00 0.00 43 1016.1
20260830200656 96 163 1.7 7.8 0.00 0.00 0.00 43 1016.1
20260830200056 96 170 2.6 7.8 0.00 0.00 0.00 41 1016.2
20260830195555 96 132 2.6 7.8 0.00 0.00 0.00 41 1016.3
20260830195056 94 169 1.7 6.1 0.00 0.00 0.00 47 1016.2
20260830194554 93 54 0.9 7.0 0.00 0.00 0.00 49 1016.3
20260830194054 94 81 1.7 8.7 0.00 0.00 0.00 44 1016.4
20260830193553 95 58 4.3 7.8 0.00 0.00 0.00 41 1016.4
20260830193054 97 177 2.6 6.1 0.00 0.00 0.00 42 1016.5
20260830192552 96 202 2.6 6.1 0.00 0.00 0.00 44 1016.5
20260830192053 95 114 1.7 7.0 0.00 0.00 0.00 45 1016.6
20260830191554 95 82 3.5 7.0 0.00 0.00 0.00 42 1016.4
20260830191050 95 210 1.7 7.0 0.00 0.00 0.00 41 1016.6
20260830190504 96 138 2.6 7.0 0.00 0.00 0.00 40 1016.7
20260830190003 96 202 2.6 7.0 0.00 0.00 0.00 41 1016.7
20260830185503 95 192 1.7 6.1 0.00 0.00 0.00 41 1016.8
20260830185001 95 71 0.9 6.1 0.00 0.00 0.00 44 1016.8
20260830184503 95 205 0.0 6.1 0.00 0.00 0.00 42 1016.9
20260830184102 94 117 0.9 6.1 0.00 0.00 0.00 45 1016.9
20260830184002 94 90 2.6 6.1 0.00 0.00 0.00 42 1017.0
20260830183600 95 193 2.6 7.0 0.00 0.00 0.00 41 1017.0
20260830183102 94 215 0.9 6.1 0.00 0.00 0.00 41 1017.1
20260830182558 95 169 0.0 6.1 0.00 0.00 0.00 43 1017.1
20260830182058 94 207 1.7 7.0 0.00 0.00 0.00 49 1017.1
20260830181559 94 186 2.6 7.0 0.00 0.00 0.00 42 1017.2
20260830181055 93 167 3.5 7.8 0.00 0.00 0.00 45 1017.3
20260830180658 94 126 2.6 8.7 0.00 0.00 0.00 45 1017.3
20260830180059 93 219 0.9 8.7 0.00 0.00 0.00 42 1017.5
20260830175558 93 201 3.5 8.7 0.00 0.00 0.00 42 1017.6
20260830175058 93 235 3.5 9.6 0.00 0.00 0.00 43 1017.6
20260830174601 93 199 1.7 9.6 0.00 0.00 0.00 48 1017.7
20260830174059 93 310 1.7 8.7 0.00 0.00 0.00 44 1017.9
20260830173557 93 159 1.7 7.0 0.00 0.00 0.00 44 1017.9
20260830173054 92 161 1.7 7.0 0.00 0.00 0.00 46 1017.9
20260830172558 92 155 2.6 7.8 0.00 0.00 0.00 43 1018.0
20260830172053 92 198 3.5 10.4 0.00 0.00 0.00 44 1018.1
20260830171553 92 206 4.3 8.7 0.00 0.00 0.00 44 1018.2
20260830171052 92 163 2.6 9.6 0.00 0.00 0.00 45 1018.3
20260830170505 92 163 3.5 10.4 0.00 0.00 0.00 43 1018.3
20260830170010 92 296 2.6 7.8 0.00 0.00 0.00 47 1018.2
20260830165502 91 159 3.5 7.8 0.00 0.00 0.00 45 1018.2
20260830165002 91 177 2.6 7.0 0.00 0.00 0.00 48 1018.3
20260830164601 90 87 4.3 7.0 0.00 0.00 0.00 46 1018.4
20260830164101 90 202 2.6 10.4 0.00 0.00 0.00 46 1018.5
20260830163559 89 211 5.2 10.4 0.00 0.00 0.00 46 1018.5
20260830163058 89 235 4.3 9.6 0.00 0.00 0.00 47 1018.5
20260830162555 89 205 4.3 9.6 0.00 0.00 0.00 47 1018.6
20260830162052 89 205 2.6 7.0 0.00 0.00 0.00 49 1018.4
20260830161605 88 153 2.6 8.7 0.00 0.00 0.00 52 1018.5
20260830161053 87 163 2.6 9.6 0.00 0.00 0.00 50 1018.7
20260830160501 87 177 2.6 13.0 0.00 0.00 0.00 52 1018.6
20260830160059 87 184 5.2 13.0 0.00 0.00 0.00 50 1018.6
20260830155558 87 189 3.5 10.4 0.00 0.00 0.00 52 1018.7
20260830155059 86 163 1.7 8.7 0.00 0.00 0.00 53 1018.7
20260830154555 86 248 1.7 12.2 0.00 0.00 0.00 52 1018.6
20260830154054 85 173 2.6 15.6 0.00 0.00 0.00 54 1018.7
20260830153553 85 236 7.8 15.6 0.00 0.00 0.00 50 1018.8
20260830153059 85 175 1.7 13.0 0.00 0.00 0.00 53 1018.8
20260830152551 85 157 4.3 13.0 0.00 0.00 0.00 51 1018.6
20260830152049 84 184 4.3 13.9 0.00 0.00 0.00 51 1018.6
20260830151551 84 173 3.5 13.9 0.00 0.00 0.00 52 1018.5
20260830151046 84 130 3.5 11.3 0.00 0.00 0.00 52 1018.5
20260830150644 84 197 4.3 11.3 0.00 0.00 0.00 50 1018.6
20260830150053 84 182 4.3 10.4 0.00 0.00 0.00 52 1018.5
20260830145550 83 119 1.7 13.9 0.00 0.00 0.00 54 1018.5
20260830145049 83 214 7.0 13.9 0.00 0.00 0.00 53 1018.6
20260830144548 82 192 2.6 13.0 0.00 0.00 0.00 53 1018.5
20260830144047 82 180 3.5 12.2 0.00 0.00 0.00 53 1018.5
20260830143546 82 157 7.8 12.2 0.00 0.00 0.00 53 1018.5
20260830143055 81 236 3.5 13.0 0.00 0.00 0.00 54 1018.5
20260830142543 81 220 2.6 9.6 0.00 0.00 0.00 55 1018.6
20260830142044 80 202 3.5 8.7 0.00 0.00 0.00 58 1018.5
20260830141540 80 178 1.7 11.3 0.00 0.00 0.00 58 1018.6
20260830141038 79 244 2.6 12.2 0.00 0.00 0.00 59 1018.6
20260830140509 78 186 2.6 7.0 0.00 0.00 0.00 62 1018.7
20260830140008 78 176 1.7 6.1 0.00 0.00 0.00 62 1018.6
20260830135507 76 225 1.7 8.7 0.00 0.00 0.00 68 1018.6
20260830135006 75 178 2.6 8.7 0.00 0.00 0.00 70 1018.7
20260830134504 73 197 3.5 8.7 0.00 0.00 0.00 75 1018.7
20260830134003 72 182 2.6 7.0 0.00 0.00 0.00 75 1018.7
20260830133502 70 194 0.9 6.1 0.00 0.00 0.00 83 1018.8
20260830133103 68 184 0.9 5.2 0.00 0.00 0.00 87 1018.9
20260830132559 67 181 0.9 6.1 0.00 0.00 0.00 89 1018.9
20260830132057 66 133 0.9 6.1 0.00 0.00 0.00 90 1018.9
20260830131556 66 155 0.0 3.5 0.00 0.00 0.00 91 1018.9
20260830131056 65 159 0.9 2.6 0.00 0.00 0.00 92 1018.9
20260830130655 64 152 0.0 1.7 0.00 0.00 0.00 92 1019.1
20260830130112 64 169 0.0 1.7 0.00 0.00 0.00 92 1019.1
20260830125557 63 166 0.0 1.7 0.00 0.00 0.00 92 1019.2
20260830125057 63 162 0.0 2.6 0.00 0.00 0.00 92 1019.2